Retour au catalogue

STARLINK-37520

ActifCommunicationsVLEO
NORAD 69819·PAYLOAD·🇺🇸 United States

Lancé Jul 5, 2026 depuis Cape Canaveral Space Force Station

Loading…

Prochains Passages (prochaines 24 heures)

TLE

FraisSource: CelesTrak SupGP

Époque: Sep 15, 2026, 04:06 UTC

1 69819C 26154A   26258.17131944  .00066788  00000+0  19725-2 0  2582
2 69819  53.1597 356.7419 0001186  85.4081  87.1387 15.34369557    15

Suivez STARLINK-37520 en temps réel avec AllMySat

Download on the App Store